Weather History for KCNO - March, 2013

Change the Weather History Date:

Monday, March 18, 2013

  Actual Average Record
Temperature  
Mean Temperature 56 °F -  
Max Temperature 64 °F 68 °F 86 °F (2009)
Min Temperature 48 °F 42 °F 37 °F (2002)
Degree Days  
Heating Degree Days 9    
Growing Degree Days 6 (Base 50)    
Moisture  
Dew Point 49 °F    
Average Humidity 81    
Maximum Humidity 94    
Minimum Humidity 60    
Precipitation  
Precipitation 0.00 in - - ()
Sea Level Pressure  
Sea Level Pressure 30.04 in    
Wind  
Wind Speed 4 mph (WSW)    
Max Wind Speed 10 mph    
Max Gust Speed -    
Visibility 4 miles    
Events      
Averages and records for this station are not official NWS values.
T = Trace of Precipitation, MM = Missing Value Source: NWS Daily Summary

Daily Weather History Graph

Daily Weather History Graph

Search for Another Location

Airport or City:

Trip Planner

Search our weather history database for the weather conditions in past years. The results will help you decide how hot, cold, wet, or windy it might be!

Date:

Astronomy

Mar. 18, 2013 Rise Set
Actual Time 6:56 AM PDT 7:00 PM PDT
Civil Twilight 6:31 AM PDT 7:25 PM PDT
Nautical Twilight 6:02 AM PDT 7:54 PM PDT
Astronomical Twilight 5:33 AM PDT 8:24 PM PDT
Moon 11:15 AM PDT (3/18) 12:49 AM PDT (3/18)
Length of Visible Light 12h 54m
Length of Day
12h 04m
Waxing Crescent, 41% of the Moon is Illuminated
Mar 18
Waxing Crescent
Mar 19
First Quarter
Mar 27
Full
Apr 2
Last Quarter
Apr 10
New

Hourly Weather History & Observations

Time (PDT) Temp. Dew Point Humidity Pressure Visibility Wind Dir Wind Speed Gust Speed Precip Events Conditions
12:53 AM 51.1 °F 48.0 °F 89% 29.99 in 4.0 mi WNW 5.8 mph - N/A   Clear
1:03 AM 50.0 °F 48.2 °F 94% 30.00 in 4.0 mi SW 3.5 mph - N/A   Partly Cloudy
1:19 AM 48.2 °F 46.4 °F 93% 30.02 in 4.0 mi Calm Calm - N/A   Mostly Cloudy
1:53 AM 52.0 °F 48.9 °F 89% 30.00 in 4.0 mi WSW 4.6 mph - N/A   Overcast
2:53 AM 53.1 °F 50.0 °F 89% 30.00 in 5.0 mi SW 3.5 mph - N/A   Overcast
3:53 AM 53.1 °F 50.0 °F 89% 30.00 in 5.0 mi SW 5.8 mph - N/A   Overcast
4:53 AM 53.1 °F 48.9 °F 86% 30.00 in 5.0 mi SSW 5.8 mph - N/A   Overcast
5:53 AM 52.0 °F 50.0 °F 93% 30.01 in 2.5 mi Calm Calm - N/A   Overcast
6:53 AM 52.0 °F 50.0 °F 93% 30.03 in 2.5 mi Calm Calm - N/A   Overcast
7:53 AM 53.1 °F 51.1 °F 93% 30.04 in 2.0 mi Calm Calm - N/A   Overcast
8:19 AM 53.6 °F 50.0 °F 88% 30.05 in 2.5 mi SSE 3.5 mph - N/A   Overcast
8:53 AM 53.1 °F 48.9 °F 86% 30.07 in 2.5 mi Calm Calm - N/A   Overcast
9:09 AM 53.6 °F 50.0 °F 88% 30.07 in 4.0 mi Calm Calm - N/A   Overcast
9:27 AM 53.6 °F 48.2 °F 82% 30.07 in 4.0 mi Calm Calm - N/A   Haze
9:53 AM 54.0 °F 50.0 °F 86% 30.08 in 4.0 mi Calm Calm - N/A   Overcast
10:53 AM 55.0 °F 50.0 °F 83% 30.09 in 4.0 mi WSW 3.5 mph - N/A   Haze
11:53 AM 57.0 °F 48.9 °F 74% 30.07 in 4.0 mi Calm Calm - N/A   Haze
12:53 PM 59.0 °F 48.9 °F 69% 30.07 in 4.0 mi NW 3.5 mph - N/A   Haze
1:53 PM 62.1 °F 50.0 °F 65% 30.04 in 4.0 mi West 8.1 mph - N/A   Haze
2:53 PM 64.0 °F 50.0 °F 60% 30.03 in 5.0 mi West 10.4 mph - N/A   Haze
3:53 PM 64.0 °F 50.0 °F 60% 30.01 in 6.0 mi WNW 9.2 mph - N/A   Haze
4:53 PM 64.0 °F 50.0 °F 60% 30.01 in 5.0 mi West 6.9 mph - N/A   Haze
5:53 PM 62.1 °F 48.9 °F 62% 30.01 in 5.0 mi SW 9.2 mph - N/A   Haze
6:53 PM 60.1 °F 48.9 °F 67% 30.01 in 5.0 mi WSW 6.9 mph - N/A   Haze
7:53 PM 57.0 °F 48.9 °F 74% 30.04 in 7.0 mi West 6.9 mph - N/A   Overcast
8:53 PM 55.9 °F 48.9 °F 77% 30.05 in 6.0 mi West 5.8 mph - N/A   Haze
9:53 PM 53.1 °F 48.0 °F 83% 30.07 in 5.0 mi Calm Calm - N/A   Haze
10:53 PM 51.1 °F 48.0 °F 89% 30.09 in 5.0 mi WNW 4.6 mph - N/A   Clear
11:53 PM 50.0 °F 46.9 °F 89% 30.08 in 4.0 mi Calm Calm - N/A   Clear